Weather History for Winslow, AZ

Change the Weather History Date:

Monday, September 9, 2013

  Actual Average Record
Temperature  
Mean Temperature 65 °F 71 °F  
Max Temperature 68 °F 88 °F 96 °F (1974)
Min Temperature 61 °F 55 °F 38 °F (2001)
Degree Days  
Heating Degree Days 0 0  
Month to date heating degree days 0 0  
Since 1 July heating degree days 0 0  
Cooling Degree Days 0 7  
Month to date cooling degree days 79 69  
Year to date cooling degree days 1304 1127  
Growing Degree Days 14 (Base 50)    
Moisture  
Dew Point 60 °F    
Average Humidity 85    
Maximum Humidity 97    
Minimum Humidity 73    
Precipitation  
Precipitation 0.61 in 0.03 in 0.61 in (2013)
Month to date precipitation 0.87 0.31  
Year to date precipitation 6.57 4.84  
Sea Level Pressure  
Sea Level Pressure 29.90 in    
Wind  
Wind Speed 5 mph (NNE)    
Max Wind Speed 12 mph    
Max Gust Speed 14 mph    
Visibility 7 miles    
Events Rain    
T = Trace of Precipitation, MM = Missing Value Source: NWS Daily Summary

Daily Weather History Graph

Daily Weather History Graph

Search for Another Location

Airport:

Trip Planner

Search our weather history database for the weather conditions in past years. The results will help you decide how hot, cold, wet, or windy it might be!

Date:

Astronomy

Sep. 09, 2013 Rise Set
Actual Time 6:01 AM MST 6:37 PM MST
Civil Twilight 5:36 AM MST 7:03 PM MST
Nautical Twilight 5:06 AM MST 7:33 PM MST
Astronomical Twilight 4:35 AM MST 8:04 PM MST
Moon 10:14 AM MST (9/9) 9:09 PM MST (9/9)
Length of Visible Light 13h 27m
Length of Day
12h 36m
Waxing Crescent, 20% of the Moon is Illuminated
Sep 9
Waxing Crescent
Sep 12
First Quarter
Sep 19
Full
Sep 26
Last Quarter
Oct 4
New

Hourly Weather History & Observations

Time (MST) Temp. Dew Point Humidity Pressure Visibility Wind Dir Wind Speed Gust Speed Precip Events Conditions
12:56 AM 63.0 °F 59.0 °F 87% 29.86 in 10.0 mi North 4.6 mph - 0.01 in   Overcast
1:56 AM 64.0 °F 59.0 °F 84% 29.86 in 10.0 mi East 4.6 mph - 0.00 in   Mostly Cloudy
2:56 AM 63.0 °F 59.0 °F 87% 29.86 in 10.0 mi ESE 8.1 mph - 0.00 in   Overcast
3:56 AM 63.0 °F 60.1 °F 90% 29.84 in 10.0 mi ESE 5.8 mph - 0.00 in   Overcast
4:56 AM 63.0 °F 60.1 °F 90% 29.84 in 10.0 mi ESE 5.8 mph - N/A   Overcast
5:56 AM 63.0 °F 60.1 °F 90% 29.85 in 10.0 mi SE 5.8 mph - N/A   Overcast
7:56 AM 63.0 °F 61.0 °F 93% 29.86 in 5.0 mi ESE 5.8 mph - 0.02 in Rain Rain
8:56 AM 64.0 °F 61.0 °F 90% 29.88 in 10.0 mi SE 5.8 mph - 0.01 in   Overcast
9:56 AM 64.9 °F 61.0 °F 87% 29.88 in 10.0 mi ESE 6.9 mph - 0.00 in Rain Light Rain
10:15 AM 64.4 °F 60.8 °F 88% 30.05 in 10.0 mi East 8.1 mph - 0.00 in   Overcast
10:30 AM 66.2 °F 60.8 °F 83% 30.05 in 10.0 mi East 8.1 mph - 0.00 in   Overcast
10:56 AM 64.9 °F 60.1 °F 84% 29.88 in 10.0 mi East 8.1 mph - 0.00 in Rain Light Rain
11:56 AM 66.0 °F 59.0 °F 78% 29.86 in 10.0 mi Calm Calm - 0.03 in   Overcast
12:56 PM 68.0 °F 59.0 °F 73% 29.84 in 10.0 mi ENE 3.5 mph - 0.00 in   Overcast
1:56 PM 64.9 °F 60.1 °F 84% 29.83 in 4.0 mi NNW 4.6 mph - 0.05 in Rain Rain
2:10 PM 64.4 °F 60.8 °F 88% 30.01 in 3.0 mi NE 3.5 mph - 0.06 in Rain Rain
2:32 PM 64.4 °F 60.8 °F 88% 30.00 in 3.0 mi East 6.9 mph - 0.11 in Rain Rain
2:36 PM 62.6 °F 57.2 °F 82% 30.00 in 4.0 mi ENE 4.6 mph - 0.12 in Rain Light Rain
2:56 PM 64.0 °F 57.9 °F 80% 29.83 in 10.0 mi NNE 3.5 mph - 0.13 in Rain Light Rain
3:24 PM 64.4 °F 60.8 °F 88% 29.98 in 10.0 mi NNW 5.8 mph - 0.01 in Rain Light Rain
3:40 PM 64.4 °F 60.8 °F 88% 29.97 in 7.0 mi NW 6.9 mph - 0.01 in Rain Light Rain
3:56 PM 64.0 °F 61.0 °F 90% 29.81 in 10.0 mi NW 8.1 mph - 0.01 in Rain Light Rain
4:41 PM 62.6 °F 60.8 °F 94% 29.97 in 1.8 mi NW 8.1 mph - 0.03 in Rain Heavy Rain
4:44 PM 62.6 °F 60.8 °F 94% 29.97 in 1.2 mi NW 9.2 mph - 0.04 in Rain Heavy Rain
4:56 PM 62.1 °F 59.0 °F 90% 29.82 in 1.5 mi WNW 9.2 mph - 0.16 in Rain Rain
4:59 PM 62.6 °F 59.0 °F 88% 29.97 in 2.0 mi NW 8.1 mph - 0.00 in Rain Rain
5:05 PM 62.6 °F 60.8 °F 94% 29.98 in 3.0 mi WNW 5.8 mph - 0.01 in Rain Light Rain
5:12 PM 62.6 °F 60.8 °F 94% 29.98 in 1.8 mi WNW 10.4 mph - 0.04 in Rain Heavy Rain
5:16 PM 62.6 °F 60.8 °F 94% 29.97 in 1.2 mi NNW 9.2 mph - 0.08 in Rain Heavy Rain
5:23 PM 60.8 °F 59.0 °F 94% 29.96 in 1.8 mi North 10.4 mph - 0.14 in Rain Heavy Rain
5:29 PM 60.8 °F 59.0 °F 94% 29.96 in 3.0 mi North 10.4 mph - 0.16 in Rain Rain
5:56 PM 63.0 °F 60.1 °F 90% 29.80 in 10.0 mi North 6.9 mph - 0.17 in   Overcast
6:56 PM 62.1 °F 59.0 °F 90% 29.81 in 10.0 mi WSW 4.6 mph - 0.00 in   Overcast
7:49 PM 60.8 °F 57.2 °F 88% 29.98 in 10.0 mi SW 5.8 mph - N/A   Mostly Cloudy
7:56 PM 61.0 °F 57.9 °F 90% 29.83 in 10.0 mi SW 3.5 mph - N/A   Overcast
8:07 PM 60.8 °F 57.2 °F 88% 29.98 in 10.0 mi SW 3.5 mph - N/A   Overcast
8:56 PM 61.0 °F 57.9 °F 90% 29.83 in 10.0 mi SW 4.6 mph - N/A   Mostly Cloudy
9:56 PM 61.0 °F 59.0 °F 93% 29.83 in 10.0 mi Calm Calm - N/A   Overcast
10:56 PM 62.1 °F 59.0 °F 90% 29.83 in 10.0 mi Calm Calm - N/A   Overcast
11:56 PM 62.1 °F 59.0 °F 90% 29.83 in 10.0 mi Calm Calm - N/A   Overcast